ESCO2: Skeleton Creek at Enid, OK

Data processed at Sat Dec 09 2017 23:03


All information presented herein is the property of the government of the United States of America and may be revised or deleted at any time without prior notice.
Dissemination of this information without the expressed written consent of the Public Affairs Office, Tulsa District U.S. Army Corps of Engineers is strictly prohibited.
These data are gathered electronically and, as presented, have not undergone any form of quality control. These data are not guaranteed to be valid or correct.
Go to home page.
Go to station list.

Downstream station:


Previous Day
Next Day
Current Day
    
SHEF ID:       ESCO2     Skeleton Creek at Enid, OK
STATION TYPE:  

               PRECIP     STAGE  RIV-FLOW  WTR-TEMP   CONDUCT  BAT-LOAD
                   in        ft       cfs         F   umho/cm      volt
              Ccp-Rev   Ccp-Rev   Ccp-Rev   Ccp-Rev   Ccp-Rev   Ccp-Rev
(US/Central)
12/07 00:00      0.00      2.61        14     37.54      1282     12.73
12/07 01:00      0.00      2.61        14     37.29      1288     12.73
12/07 02:00      0.00      2.62        14     36.88      1293     12.73
12/07 03:00      0.00      2.61        14     35.78      1301     12.65
12/07 04:00      0.00      2.60        13     34.84      1301     12.65
12/07 05:00      0.00      2.60        13     33.80      1302     12.65
12/07 06:00      0.00      2.60        13     32.95      1305     12.57
12/07 07:00      0.00      2.61        14     32.63      1303     12.57
12/07 08:00      0.00      2.62        14     32.54      1305     12.57
12/07 09:00      0.00      2.60        13     33.06      1305     12.57
12/07 10:00      0.00      2.60        13     35.28      1299     12.81
12/07 11:00      0.00      2.60        13     38.19      1296     13.68
12/07 12:00      0.00      2.62        14     41.25      1294     13.53
12/07 13:00      0.00      2.60        13     42.85      1295     13.44
12/07 14:00      0.00      2.60        13     43.74      1295     13.44
12/07 15:00      0.00      2.59        13     43.61      1291     13.44
12/07 16:00      0.00      2.60        13     41.31      1285     13.53
12/07 17:00      0.00      2.60        13     38.17      1281     13.53
12/07 18:00      0.00      2.61        14     36.46      1280     13.13
12/07 19:00      0.00      2.62        14     35.69      1293     12.97
12/07 20:00      0.00      2.62        14     34.23      1290     12.89
12/07 21:00      0.00      2.62        14     33.06      1292     12.81
12/07 22:00      0.00      2.61        14     32.94      1298     12.81
12/07 23:00      0.00      2.63        15     33.06      1302     12.73